Location: Andrest
(43.3200°N, 0.0641°E)
Time: 13:07:42
(UTC+00:00)

Cosmos 1500 - Visible Passes

Search period start: 20 April 2021 00:00
Search period end: 30 April 2021 00:00
Orbit: 499 x 517 km, 82.5° (Epoch: 19 April)

Date Brightness Start Highest point End Pass type
(mag) Time Alt. Az. Time Alt. Az. Time Alt. Az.
22 Apr 6.4 00:03:32 10° NNW 00:03:48 12° NNW 00:03:48 12° NNW visible
22 Apr 6.3 23:46:03 10° NNW 23:46:35 14° NNW 23:46:35 14° NNW visible
23 Apr 6.1 23:28:36 10° N 23:29:23 15° N 23:29:23 15° N visible
24 Apr 6.0 23:11:12 10° N 23:12:11 17° N 23:12:11 17° N visible
25 Apr 5.8 22:53:50 10° N 22:54:58 18° N 22:54:58 18° N visible
26 Apr 5.6 22:36:30 10° N 22:37:48 19° NNE 22:37:48 19° NNE visible
27 Apr 5.5 22:19:14 10° N 22:20:37 19° NNE 22:20:37 19° NNE visible
28 Apr 5.4 22:02:00 10° NNE 22:03:26 18° NNE 22:03:26 18° NNE visible
28 Apr 6.1 23:37:46 10° NW 23:38:18 13° NW 23:38:18 13° NW visible
29 Apr 5.4 21:44:51 10° NNE 21:46:17 17° NE 21:46:17 17° NE visible
29 Apr 5.9 23:20:05 10° NNW 23:21:08 16° NW 23:21:08 16° NW visible
